| time (UTC) | temp F | wind direction | speed MPH | gust MPH | rain 1hr in | rain 24hr in | rain mn in | humidity % | barometer mb |
| 20260831131431 | 81 | 208 | 4.0 | 5.0 | 0.00 | 0.00 | 0.00 | 71 | 1018.5 |
| 20260831130926 | 80 | 209 | 4.0 | 5.0 | 0.00 | 0.00 | 0.00 | 71 | 1018.4 |
| 20260831130422 | 80 | 172 | 3.0 | 3.0 | 0.00 | 0.00 | 0.00 | 71 | 1018.3 |
| 20260831125921 | 79 | 185 | 3.0 | 3.0 | 0.00 | 0.00 | 0.00 | 72 | 1018.5 |
| 20260831125416 | 79 | 188 | 4.0 | 5.0 | 0.00 | 0.00 | 0.00 | 72 | 1018.4 |
| 20260831124912 | 78 | 191 | 3.0 | 5.0 | 0.00 | 0.00 | 0.00 | 72 | 1018.2 |
| 20260831124408 | 78 | 188 | 3.0 | 5.0 | 0.00 | 0.00 | 0.00 | 73 | 1018.2 |
| 20260831123903 | 78 | 156 | 2.0 | 2.0 | 0.00 | 0.00 | 0.00 | 74 | 1017.9 |
| 20260831123401 | 77 | 152 | 1.0 | 1.0 | 0.00 | 0.00 | 0.00 | 74 | 1017.9 |
| 20260831122856 | 77 | 152 | 1.0 | 1.0 | 0.00 | 0.00 | 0.00 | 74 | 1017.7 |
| 20260831122351 | 77 | 151 | 1.0 | 2.0 | 0.00 | 0.00 | 0.00 | 75 | 1017.9 |
| 20260831121846 | 77 | 160 | 1.0 | 1.0 | 0.00 | 0.00 | 0.00 | 75 | 1017.8 |
| 20260831121342 | 76 | 161 | 1.0 | 2.0 | 0.00 | 0.00 | 0.00 | 75 | 1017.8 |
| 20260831120837 | 76 | 159 | 1.0 | 2.0 | 0.00 | 0.00 | 0.00 | 75 | 1017.6 |
| 20260831120332 | 76 | 158 | 1.0 | 1.0 | 0.00 | 0.00 | 0.00 | 75 | 1017.4 |
| 20260831115827 | 76 | 157 | 1.0 | 1.0 | 0.00 | 0.00 | 0.00 | 74 | 1017.4 |
| 20260831115324 | 76 | 142 | 1.0 | 1.0 | 0.00 | 0.00 | 0.00 | 74 | 1017.5 |
| 20260831114823 | 77 | 138 | 0.0 | 1.0 | 0.00 | 0.00 | 0.00 | 73 | 1017.4 |
| 20260831114321 | 77 | 138 | 1.0 | 1.0 | 0.00 | 0.00 | 0.00 | 73 | 1017.6 |
| 20260831113817 | 77 | 139 | 2.0 | 2.0 | 0.00 | 0.00 | 0.00 | 72 | 1017.2 |
| 20260831113312 | 77 | 139 | 2.0 | 2.0 | 0.00 | 0.00 | 0.00 | 72 | 1017.2 |
| 20260831112811 | 77 | 159 | 2.0 | 2.0 | 0.00 | 0.00 | 0.00 | 71 | 1017.3 |
| 20260831112301 | 77 | 166 | 3.0 | 5.0 | 0.00 | 0.00 | 0.00 | 71 | 1017.5 |
| 20260831111756 | 77 | 162 | 2.0 | 2.0 | 0.00 | 0.00 | 0.00 | 71 | 1017.3 |
| 20260831111253 | 77 | 183 | 3.0 | 3.0 | 0.00 | 0.00 | 0.00 | 71 | 1017.0 |
| 20260831110748 | 77 | 169 | 3.0 | 5.0 | 0.00 | 0.00 | 0.00 | 70 | 1017.2 |
| 20260831110243 | 78 | 178 | 3.0 | 3.0 | 0.00 | 0.00 | 0.00 | 70 | 1016.9 |
| 20260831105741 | 78 | 181 | 3.0 | 3.0 | 0.00 | 0.00 | 0.00 | 70 | 1017.0 |
| 20260831105237 | 78 | 181 | 3.0 | 3.0 | 0.00 | 0.00 | 0.00 | 70 | 1017.3 |
| 20260831104732 | 78 | 183 | 3.0 | 3.0 | 0.00 | 0.00 | 0.00 | 69 | 1016.9 |
| 20260831104229 | 78 | 167 | 2.0 | 3.0 | 0.00 | 0.00 | 0.00 | 69 | 1017.1 |
| 20260831103729 | 78 | 187 | 3.0 | 3.0 | 0.00 | 0.00 | 0.00 | 68 | 1016.6 |
| 20260831103224 | 78 | 163 | 2.0 | 2.0 | 0.00 | 0.00 | 0.00 | 68 | 1017.0 |
| 20260831102724 | 79 | 165 | 2.0 | 2.0 | 0.00 | 0.00 | 0.00 | 67 | 1016.7 |
| 20260831102219 | 79 | 165 | 2.0 | 2.0 | 0.00 | 0.00 | 0.00 | 67 | 1016.8 |
| 20260831101714 | 79 | 183 | 3.0 | 3.0 | 0.00 | 0.00 | 0.00 | 66 | 1016.7 |
| 20260831101210 | 79 | 175 | 3.0 | 3.0 | 0.00 | 0.00 | 0.00 | 66 | 1016.9 |
| 20260831100706 | 80 | 180 | 2.0 | 2.0 | 0.00 | 0.00 | 0.00 | 65 | 1016.9 |
| 20260831100202 | 80 | 173 | 2.0 | 2.0 | 0.00 | 0.00 | 0.00 | 65 | 1016.9 |
| 20260831095700 | 80 | 184 | 3.0 | 3.0 | 0.00 | 0.00 | 0.00 | 65 | 1016.9 |
| 20260831095155 | 80 | 168 | 3.0 | 3.0 | 0.00 | 0.00 | 0.00 | 64 | 1016.9 |
| 20260831094650 | 81 | 196 | 4.0 | 6.0 | 0.00 | 0.00 | 0.00 | 63 | 1017.0 |
| 20260831094146 | 81 | 196 | 4.0 | 5.0 | 0.00 | 0.00 | 0.00 | 63 | 1017.0 |
| 20260831093642 | 81 | 198 | 5.0 | 6.0 | 0.00 | 0.00 | 0.00 | 62 | 1016.9 |
| 20260831093138 | 81 | 173 | 3.0 | 3.0 | 0.00 | 0.00 | 0.00 | 62 | 1016.8 |
| 20260831092634 | 81 | 188 | 3.0 | 3.0 | 0.00 | 0.00 | 0.00 | 61 | 1016.9 |
| 20260831092129 | 81 | 169 | 5.0 | 6.0 | 0.00 | 0.00 | 0.00 | 61 | 1016.7 |
| 20260831091628 | 81 | 145 | 4.0 | 5.0 | 0.00 | 0.00 | 0.00 | 61 | 1016.9 |
| 20260831091124 | 81 | 159 | 3.0 | 5.0 | 0.00 | 0.00 | 0.00 | 62 | 1016.8 |
| 20260831090620 | 81 | 165 | 5.0 | 6.0 | 0.00 | 0.00 | 0.00 | 61 | 1016.6 |
| 20260831090116 | 81 | 164 | 5.0 | 6.0 | 0.00 | 0.00 | 0.00 | 62 | 1016.6 |
| 20260831085611 | 81 | 138 | 2.0 | 3.0 | 0.00 | 0.00 | 0.00 | 62 | 1016.7 |
| 20260831085106 | 81 | 166 | 3.0 | 3.0 | 0.00 | 0.00 | 0.00 | 62 | 1016.7 |
| 20260831084602 | 81 | 151 | 3.0 | 3.0 | 0.00 | 0.00 | 0.00 | 62 | 1016.5 |
| 20260831084058 | 81 | 141 | 3.0 | 5.0 | 0.00 | 0.00 | 0.00 | 61 | 1016.5 |
| 20260831083553 | 81 | 135 | 3.0 | 3.0 | 0.00 | 0.00 | 0.00 | 61 | 1016.6 |
| 20260831083047 | 81 | 123 | 3.0 | 5.0 | 0.00 | 0.00 | 0.00 | 61 | 1016.2 |
| 20260831082541 | 81 | 133 | 2.0 | 2.0 | 0.00 | 0.00 | 0.00 | 61 | 1016.2 |
| 20260831082037 | 81 | 132 | 2.0 | 3.0 | 0.00 | 0.00 | 0.00 | 61 | 1016.3 |
| 20260831081533 | 81 | 132 | 1.0 | 1.0 | 0.00 | 0.00 | 0.00 | 60 | 1016.3 |
| 20260831081028 | 81 | 123 | 2.0 | 2.0 | 0.00 | 0.00 | 0.00 | 59 | 1016.6 |
| 20260831080522 | 82 | 121 | 3.0 | 3.0 | 0.00 | 0.00 | 0.00 | 58 | 1016.6 |
| 20260831080018 | 82 | 132 | 2.0 | 2.0 | 0.00 | 0.00 | 0.00 | 58 | 1016.6 |
| 20260831075513 | 82 | 151 | 1.0 | 2.0 | 0.00 | 0.00 | 0.00 | 57 | 1016.3 |
| 20260831075009 | 82 | 147 | 4.0 | 5.0 | 0.00 | 0.00 | 0.00 | 58 | 1016.3 |
| 20260831074503 | 81 | 158 | 4.0 | 5.0 | 0.00 | 0.00 | 0.00 | 58 | 1016.2 |
| 20260831074002 | 81 | 136 | 2.0 | 2.0 | 0.00 | 0.00 | 0.00 | 59 | 1016.1 |
| 20260831073457 | 80 | 138 | 2.0 | 2.0 | 0.00 | 0.00 | 0.00 | 59 | 1016.2 |
| 20260831072955 | 80 | 130 | 2.0 | 2.0 | 0.00 | 0.00 | 0.00 | 60 | 1016.1 |
| 20260831072452 | 80 | 123 | 1.0 | 1.0 | 0.00 | 0.00 | 0.00 | 60 | 1016.0 |
| 20260831071948 | 79 | 122 | 3.0 | 3.0 | 0.00 | 0.00 | 0.00 | 61 | 1016.0 |
| 20260831071446 | 79 | 99 | 2.0 | 2.0 | 0.00 | 0.00 | 0.00 | 62 | 1016.1 |
| 20260831070941 | 79 | 103 | 1.0 | 2.0 | 0.00 | 0.00 | 0.00 | 62 | 1016.1 |
| 20260831070436 | 80 | 99 | 2.0 | 2.0 | 0.00 | 0.00 | 0.00 | 61 | 1016.1 |
| 20260831065935 | 80 | 100 | 2.0 | 2.0 | 0.00 | 0.00 | 0.00 | 60 | 1016.1 |
| 20260831065433 | 80 | 101 | 3.0 | 5.0 | 0.00 | 0.00 | 0.00 | 61 | 1016.2 |
| 20260831064928 | 79 | 102 | 3.0 | 3.0 | 0.00 | 0.00 | 0.00 | 62 | 1016.1 |
| 20260831064423 | 80 | 99 | 3.0 | 3.0 | 0.00 | 0.00 | 0.00 | 63 | 1016.2 |
| 20260831063919 | 80 | 99 | 2.0 | 2.0 | 0.00 | 0.00 | 0.00 | 61 | 1016.5 |
| 20260831063414 | 80 | 116 | 2.0 | 2.0 | 0.00 | 0.00 | 0.00 | 61 | 1016.3 |
| 20260831062913 | 79 | 122 | 2.0 | 2.0 | 0.00 | 0.00 | 0.00 | 62 | 1016.3 |
| 20260831062410 | 79 | 104 | 2.0 | 2.0 | 0.00 | 0.00 | 0.00 | 64 | 1016.3 |
| 20260831061908 | 79 | 97 | 2.0 | 2.0 | 0.00 | 0.00 | 0.00 | 64 | 1016.1 |
| 20260831061407 | 79 | 92 | 3.0 | 3.0 | 0.00 | 0.00 | 0.00 | 64 | 1016.2 |
| 20260831060903 | 77 | 93 | 4.0 | 5.0 | 0.00 | 0.00 | 0.00 | 67 | 1016.3 |
| 20260831060358 | 77 | 110 | 1.0 | 1.0 | 0.00 | 0.00 | 0.00 | 68 | 1016.3 |
| 20260831055857 | 77 | 92 | 0.0 | 0.0 | 0.00 | 0.00 | 0.00 | 69 | 1016.3 |
| 20260831055352 | 78 | 76 | 2.0 | 2.0 | 0.00 | 0.00 | 0.00 | 67 | 1016.1 |
| 20260831054848 | 81 | 85 | 5.0 | 6.0 | 0.00 | 0.00 | 0.00 | 62 | 1016.2 |
| 20260831054343 | 81 | 141 | 0.0 | 0.0 | 0.00 | 0.00 | 0.00 | 55 | 1016.0 |
| 20260831053842 | 81 | 141 | 0.0 | 0.0 | 0.00 | 0.00 | 0.00 | 55 | 1016.1 |
| 20260831053340 | 81 | 141 | 0.0 | 0.0 | 0.00 | 0.00 | 0.00 | 54 | 1016.0 |
| 20260831052840 | 82 | 141 | 0.0 | 0.0 | 0.00 | 0.00 | 0.00 | 53 | 1015.9 |
| 20260831052335 | 82 | 141 | 0.0 | 0.0 | 0.00 | 0.00 | 0.00 | 53 | 1016.0 |
| 20260831051833 | 82 | 141 | 0.0 | 0.0 | 0.00 | 0.00 | 0.00 | 53 | 1015.9 |
| 20260831051332 | 82 | 141 | 0.0 | 0.0 | 0.00 | 0.00 | 0.00 | 52 | 1015.8 |
| 20260831050826 | 82 | 141 | 0.0 | 0.0 | 0.00 | 0.00 | 0.00 | 52 | 1015.8 |
| 20260831050320 | 82 | 141 | 1.0 | 1.0 | 0.00 | 0.00 | 0.00 | 53 | 1015.9 |
| 20260831045814 | 82 | 141 | 1.0 | 1.0 | 0.00 | 0.00 | 0.00 | 52 | 1016.0 |
| 20260831045308 | 81 | 141 | 0.0 | 1.0 | 0.00 | 0.00 | 0.00 | 53 | 1015.9 |
| 20260831044804 | 81 | 141 | 0.0 | 0.0 | 0.00 | 0.00 | 0.00 | 53 | 1015.7 |
| 20260831044258 | 81 | 141 | 0.0 | 0.0 | 0.00 | 0.00 | 0.00 | 52 | 1015.9 |
| 20260831043754 | 81 | 141 | 0.0 | 0.0 | 0.00 | 0.00 | 0.00 | 53 | 1015.7 |
| 20260831043248 | 81 | 141 | 0.0 | 0.0 | 0.00 | 0.00 | 0.00 | 52 | 1015.7 |
| 20260831042743 | 81 | 141 | 0.0 | 0.0 | 0.00 | 0.00 | 0.00 | 51 | 1015.7 |
| 20260831042237 | 81 | 141 | 0.0 | 0.0 | 0.00 | 0.00 | 0.00 | 51 | 1015.8 |
| 20260831041733 | 82 | 141 | 0.0 | 0.0 | 0.00 | 0.00 | 0.00 | 51 | 1015.6 |
| 20260831041232 | 82 | 141 | 0.0 | 0.0 | 0.00 | 0.00 | 0.00 | 51 | 1015.6 |
| 20260831040727 | 82 | 141 | 0.0 | 0.0 | 0.00 | 0.00 | 0.00 | 50 | 1015.8 |
| 20260831040227 | 83 | 141 | 0.0 | 0.0 | 0.00 | 0.00 | 0.00 | 50 | 1015.8 |
| 20260831035725 | 83 | 141 | 0.0 | 0.0 | 0.00 | 0.00 | 0.00 | 49 | 1015.8 |
| 20260831035224 | 84 | 141 | 0.0 | 0.0 | 0.00 | 0.00 | 0.00 | 49 | 1015.6 |
| 20260831034723 | 84 | 141 | 0.0 | 0.0 | 0.00 | 0.00 | 0.00 | 48 | 1015.5 |
| 20260831034220 | 84 | 141 | 0.0 | 0.0 | 0.00 | 0.00 | 0.00 | 47 | 1015.6 |
| 20260831033714 | 85 | 141 | 0.0 | 0.0 | 0.00 | 0.00 | 0.00 | 46 | 1015.4 |
| 20260831033214 | 85 | 141 | 0.0 | 1.0 | 0.00 | 0.00 | 0.00 | 47 | 1015.2 |
| 20260831032709 | 85 | 141 | 1.0 | 1.0 | 0.00 | 0.00 | 0.00 | 46 | 1015.6 |
| 20260831032205 | 85 | 141 | 1.0 | 1.0 | 0.00 | 0.00 | 0.00 | 45 | 1015.6 |
| 20260831031659 | 86 | 141 | 0.0 | 1.0 | 0.00 | 0.00 | 0.00 | 46 | 1015.6 |
| 20260831031159 | 86 | 141 | 1.0 | 1.0 | 0.00 | 0.00 | 0.00 | 46 | 1015.6 |
| 20260831030658 | 86 | 141 | 1.0 | 1.0 | 0.00 | 0.00 | 0.00 | 46 | 1015.5 |
| 20260831030157 | 86 | 141 | 1.0 | 1.0 | 0.00 | 0.00 | 0.00 | 45 | 1015.3 |
| 20260831025655 | 86 | 141 | 1.0 | 1.0 | 0.00 | 0.00 | 0.00 | 45 | 1015.5 |
| 20260831025150 | 86 | 141 | 1.0 | 1.0 | 0.00 | 0.00 | 0.00 | 43 | 1015.4 |
| 20260831024648 | 86 | 141 | 0.0 | 0.0 | 0.00 | 0.00 | 0.00 | 43 | 1015.4 |
| 20260831024145 | 87 | 141 | 0.0 | 1.0 | 0.00 | 0.00 | 0.00 | 43 | 1015.3 |
| 20260831023644 | 87 | 141 | 0.0 | 0.0 | 0.00 | 0.00 | 0.00 | 42 | 1015.3 |
| 20260831023137 | 88 | 141 | 0.0 | 1.0 | 0.00 | 0.00 | 0.00 | 41 | 1015.1 |
| 20260831022633 | 88 | 141 | 1.0 | 1.0 | 0.00 | 0.00 | 0.00 | 41 | 1015.1 |
| 20260831022128 | 88 | 141 | 1.0 | 1.0 | 0.00 | 0.00 | 0.00 | 41 | 1014.9 |
| 20260831021627 | 88 | 141 | 1.0 | 1.0 | 0.00 | 0.00 | 0.00 | 40 | 1014.7 |
| 20260831021123 | 88 | 141 | 1.0 | 1.0 | 0.00 | 0.00 | 0.00 | 41 | 1014.9 |
| 20260831020618 | 88 | 141 | 1.0 | 1.0 | 0.00 | 0.00 | 0.00 | 41 | 1014.9 |
| 20260831020112 | 89 | 141 | 1.0 | 1.0 | 0.00 | 0.00 | 0.00 | 40 | 1014.8 |
| 20260831015609 | 89 | 141 | 0.0 | 1.0 | 0.00 | 0.00 | 0.00 | 40 | 1014.7 |
| 20260831015108 | 89 | 141 | 1.0 | 1.0 | 0.00 | 0.00 | 0.00 | 39 | 1014.8 |
| 20260831014603 | 90 | 141 | 1.0 | 1.0 | 0.00 | 0.00 | 0.00 | 39 | 1014.7 |
| 20260831014058 | 90 | 141 | 1.0 | 2.0 | 0.00 | 0.00 | 0.00 | 38 | 1014.5 |
| 20260831013555 | 90 | 141 | 2.0 | 2.0 | 0.00 | 0.00 | 0.00 | 38 | 1014.4 |
| 20260831013054 | 91 | 141 | 1.0 | 1.0 | 0.00 | 0.00 | 0.00 | 37 | 1014.6 |
| 20260831012554 | 91 | 141 | 1.0 | 1.0 | 0.00 | 0.00 | 0.00 | 37 | 1014.4 |
| 20260831012049 | 91 | 141 | 2.0 | 2.0 | 0.00 | 0.00 | 0.00 | 36 | 1014.4 |
| 20260831011549 | 91 | 141 | 2.0 | 2.0 | 0.00 | 0.00 | 0.00 | 36 | 1014.3 |
| 20260831011044 | 92 | 141 | 2.0 | 2.0 | 0.00 | 0.00 | 0.00 | 37 | 1014.3 |
| 20260831010539 | 92 | 140 | 1.0 | 2.0 | 0.00 | 0.00 | 0.00 | 36 | 1014.4 |
| 20260831010036 | 92 | 145 | 1.0 | 1.0 | 0.00 | 0.00 | 0.00 | 36 | 1014.2 |
| 20260831005531 | 93 | 145 | 2.0 | 2.0 | 0.00 | 0.00 | 0.00 | 35 | 1014.2 |
| 20260831005030 | 93 | 145 | 1.0 | 2.0 | 0.00 | 0.00 | 0.00 | 35 | 1014.3 |
| 20260831004527 | 94 | 145 | 2.0 | 2.0 | 0.00 | 0.00 | 0.00 | 34 | 1014.1 |
| 20260831004022 | 94 | 157 | 2.0 | 2.0 | 0.00 | 0.00 | 0.00 | 34 | 1014.3 |
| 20260831003518 | 95 | 164 | 4.0 | 5.0 | 0.00 | 0.00 | 0.00 | 33 | 1014.2 |
| 20260831003008 | 95 | 162 | 3.0 | 3.0 | 0.00 | 0.00 | 0.00 | 33 | 1014.1 |
| 20260831002506 | 96 | 158 | 5.0 | 6.0 | 0.00 | 0.00 | 0.00 | 32 | 1014.4 |
| 20260831002002 | 96 | 155 | 4.0 | 5.0 | 0.00 | 0.00 | 0.00 | 32 | 1014.1 |
| 20260831001456 | 96 | 180 | 3.0 | 5.0 | 0.00 | 0.00 | 0.00 | 31 | 1014.1 |
| 20260831000954 | 97 | 118 | 4.0 | 6.0 | 0.00 | 0.00 | 0.00 | 31 | 1014.4 |
| 20260831000449 | 97 | 196 | 7.0 | 8.0 | 0.00 | 0.00 | 0.00 | 30 | 1014.3 |
| 20260830235947 | 98 | 182 | 4.0 | 5.0 | 0.00 | 0.00 | 0.00 | 31 | 1014.3 |
| 20260830235443 | 98 | 190 | 3.0 | 3.0 | 0.00 | 0.00 | 0.00 | 31 | 1014.4 |
| 20260830234938 | 98 | 183 | 3.0 | 3.0 | 0.00 | 0.00 | 0.00 | 30 | 1014.2 |
| 20260830234433 | 98 | 164 | 4.0 | 5.0 | 0.00 | 0.00 | 0.00 | 29 | 1014.4 |
| 20260830233928 | 99 | 214 | 5.0 | 6.0 | 0.00 | 0.00 | 0.00 | 30 | 1014.1 |
| 20260830233424 | 99 | 209 | 3.0 | 3.0 | 0.00 | 0.00 | 0.00 | 29 | 1014.7 |
| 20260830232919 | 99 | 192 | 5.0 | 6.0 | 0.00 | 0.00 | 0.00 | 28 | 1014.5 |
| 20260830232415 | 99 | 218 | 7.0 | 8.0 | 0.00 | 0.00 | 0.00 | 29 | 1014.2 |
| 20260830231912 | 99 | 203 | 3.0 | 3.0 | 0.00 | 0.00 | 0.00 | 29 | 1014.3 |
| 20260830231407 | 99 | 222 | 5.0 | 6.0 | 0.00 | 0.00 | 0.00 | 29 | 1014.4 |
| 20260830230906 | 99 | 201 | 7.0 | 7.0 | 0.00 | 0.00 | 0.00 | 29 | 1014.6 |
| 20260830230402 | 99 | 218 | 8.0 | 10.0 | 0.00 | 0.00 | 0.00 | 29 | 1014.3 |
| 20260830225901 | 100 | 201 | 8.0 | 10.0 | 0.00 | 0.00 | 0.00 | 29 | 1014.5 |
| 20260830225356 | 100 | 196 | 7.0 | 8.0 | 0.00 | 0.00 | 0.00 | 29 | 1014.4 |
| 20260830224851 | 100 | 197 | 7.0 | 8.0 | 0.00 | 0.00 | 0.00 | 29 | 1014.3 |
| 20260830224350 | 100 | 212 | 5.0 | 5.0 | 0.00 | 0.00 | 0.00 | 29 | 1014.7 |
| 20260830223847 | 100 | 155 | 3.0 | 3.0 | 0.00 | 0.00 | 0.00 | 30 | 1014.7 |
| 20260830223343 | 100 | 148 | 8.0 | 9.0 | 0.00 | 0.00 | 0.00 | 28 | 1014.4 |
| 20260830222842 | 100 | 119 | 7.0 | 9.0 | 0.00 | 0.00 | 0.00 | 28 | 1014.6 |
| 20260830222337 | 100 | 203 | 7.0 | 9.0 | 0.00 | 0.00 | 0.00 | 30 | 1014.6 |
| 20260830221838 | 100 | 213 | 7.0 | 8.0 | 0.00 | 0.00 | 0.00 | 30 | 1014.5 |
| 20260830221334 | 100 | 217 | 5.0 | 7.0 | 0.00 | 0.00 | 0.00 | 30 | 1014.6 |
| 20260830220830 | 100 | 207 | 7.0 | 8.0 | 0.00 | 0.00 | 0.00 | 29 | 1014.5 |
| 20260830220329 | 100 | 168 | 6.0 | 7.0 | 0.00 | 0.00 | 0.00 | 29 | 1014.6 |
| 20260830215827 | 101 | 193 | 10.0 | 11.0 | 0.00 | 0.00 | 0.00 | 29 | 1014.7 |
| 20260830215322 | 101 | 165 | 3.0 | 5.0 | 0.00 | 0.00 | 0.00 | 31 | 1014.9 |
| 20260830214817 | 101 | 228 | 7.0 | 8.0 | 0.00 | 0.00 | 0.00 | 30 | 1014.6 |
| 20260830214312 | 101 | 184 | 5.0 | 7.0 | 0.00 | 0.00 | 0.00 | 31 | 1014.8 |
| 20260830213812 | 100 | 147 | 5.0 | 6.0 | 0.00 | 0.00 | 0.00 | 31 | 1014.8 |
| 20260830213307 | 100 | 185 | 8.0 | 9.0 | 0.00 | 0.00 | 0.00 | 31 | 1014.7 |
| 20260830212803 | 100 | 151 | 5.0 | 6.0 | 0.00 | 0.00 | 0.00 | 32 | 1014.8 |
| 20260830212258 | 99 | 95 | 5.0 | 6.0 | 0.00 | 0.00 | 0.00 | 32 | 1014.9 |
| 20260830211757 | 98 | 156 | 1.0 | 2.0 | 0.00 | 0.00 | 0.00 | 33 | 1014.8 |
| 20260830211256 | 98 | 199 | 9.0 | 10.0 | 0.00 | 0.00 | 0.00 | 32 | 1015.0 |
| 20260830210753 | 97 | 156 | 8.0 | 10.0 | 0.00 | 0.00 | 0.00 | 34 | 1014.8 |
| 20260830210252 | 98 | 186 | 7.0 | 7.0 | 0.00 | 0.00 | 0.00 | 33 | 1015.5 |
| 20260830205749 | 100 | 125 | 8.0 | 11.0 | 0.00 | 0.00 | 0.00 | 31 | 1015.0 |
| 20260830205244 | 99 | 170 | 1.0 | 2.0 | 0.00 | 0.00 | 0.00 | 32 | 1015.2 |
| 20260830204740 | 99 | 131 | 6.0 | 7.0 | 0.00 | 0.00 | 0.00 | 33 | 1015.3 |
| 20260830204238 | 98 | 106 | 4.0 | 6.0 | 0.00 | 0.00 | 0.00 | 34 | 1015.3 |
| 20260830203735 | 100 | 149 | 9.0 | 10.0 | 0.00 | 0.00 | 0.00 | 32 | 1015.6 |
| 20260830203230 | 100 | 204 | 3.0 | 3.0 | 0.00 | 0.00 | 0.00 | 32 | 1015.5 |
| 20260830202729 | 101 | 237 | 5.0 | 6.0 | 0.00 | 0.00 | 0.00 | 32 | 1015.6 |
| 20260830202225 | 100 | 174 | 12.0 | 14.0 | 0.00 | 0.00 | 0.00 | 32 | 1015.5 |
| 20260830201724 | 99 | 133 | 9.0 | 11.0 | 0.00 | 0.00 | 0.00 | 34 | 1015.9 |
| 20260830201220 | 96 | 154 | 7.0 | 8.0 | 0.00 | 0.00 | 0.00 | 36 | 1015.7 |
| 20260830200715 | 96 | 123 | 3.0 | 3.0 | 0.00 | 0.00 | 0.00 | 37 | 1015.9 |
| 20260830200214 | 97 | 134 | 5.0 | 5.0 | 0.00 | 0.00 | 0.00 | 36 | 1015.9 |
| 20260830195710 | 98 | 205 | 7.0 | 7.0 | 0.00 | 0.00 | 0.00 | 35 | 1015.9 |
| 20260830195208 | 99 | 151 | 6.0 | 8.0 | 0.00 | 0.00 | 0.00 | 35 | 1016.0 |
| 20260830194707 | 99 | 210 | 12.0 | 14.0 | 0.00 | 0.00 | 0.00 | 34 | 1015.9 |
| 20260830194202 | 100 | 168 | 9.0 | 10.0 | 0.00 | 0.00 | 0.00 | 34 | 1016.2 |
| 20260830193656 | 99 | 216 | 7.0 | 9.0 | 0.00 | 0.00 | 0.00 | 33 | 1016.3 |
| 20260830193150 | 99 | 210 | 10.0 | 13.0 | 0.00 | 0.00 | 0.00 | 33 | 1016.5 |
| 20260830192646 | 98 | 226 | 9.0 | 10.0 | 0.00 | 0.00 | 0.00 | 33 | 1016.5 |
| 20260830192141 | 100 | 253 | 9.0 | 9.0 | 0.00 | 0.00 | 0.00 | 34 | 1016.5 |
| 20260830191637 | 99 | 214 | 5.0 | 7.0 | 0.00 | 0.00 | 0.00 | 36 | 1016.6 |
| 20260830191131 | 97 | 186 | 8.0 | 10.0 | 0.00 | 0.00 | 0.00 | 36 | 1016.6 |
| 20260830190627 | 98 | 218 | 8.0 | 9.0 | 0.00 | 0.00 | 0.00 | 35 | 1016.5 |
| 20260830190121 | 98 | 202 | 7.0 | 7.0 | 0.00 | 0.00 | 0.00 | 35 | 1016.9 |
| 20260830185615 | 98 | 209 | 11.0 | 13.0 | 0.00 | 0.00 | 0.00 | 37 | 1017.0 |
| 20260830185111 | 97 | 201 | 11.0 | 11.0 | 0.00 | 0.00 | 0.00 | 38 | 1016.7 |
| 20260830184609 | 98 | 207 | 6.0 | 7.0 | 0.00 | 0.00 | 0.00 | 37 | 1016.9 |
| 20260830184104 | 98 | 216 | 3.0 | 5.0 | 0.00 | 0.00 | 0.00 | 37 | 1016.9 |
| 20260830183559 | 97 | 224 | 8.0 | 9.0 | 0.00 | 0.00 | 0.00 | 38 | 1016.9 |
| 20260830183055 | 98 | 242 | 12.0 | 13.0 | 0.00 | 0.00 | 0.00 | 37 | 1017.1 |
| 20260830182550 | 98 | 219 | 6.0 | 8.0 | 0.00 | 0.00 | 0.00 | 36 | 1017.0 |
| 20260830182046 | 98 | 194 | 6.0 | 7.0 | 0.00 | 0.00 | 0.00 | 37 | 1017.0 |
| 20260830181542 | 97 | 203 | 7.0 | 8.0 | 0.00 | 0.00 | 0.00 | 38 | 1017.3 |
| 20260830181041 | 96 | 209 | 7.0 | 8.0 | 0.00 | 0.00 | 0.00 | 37 | 1017.1 |
| 20260830180541 | 96 | 224 | 6.0 | 7.0 | 0.00 | 0.00 | 0.00 | 37 | 1017.2 |
| 20260830180040 | 97 | 234 | 8.0 | 8.0 | 0.00 | 0.00 | 0.00 | 37 | 1017.5 |
| 20260830175539 | 98 | 196 | 9.0 | 10.0 | 0.00 | 0.00 | 0.00 | 37 | 1017.6 |
| 20260830175035 | 98 | 226 | 10.0 | 13.0 | 0.00 | 0.00 | 0.00 | 38 | 1017.6 |
| 20260830174530 | 97 | 168 | 7.0 | 8.0 | 0.00 | 0.00 | 0.00 | 39 | 1017.3 |
| 20260830174025 | 95 | 185 | 5.0 | 7.0 | 0.00 | 0.00 | 0.00 | 42 | 1017.7 |
| 20260830173521 | 96 | 221 | 6.0 | 6.0 | 0.00 | 0.00 | 0.00 | 42 | 1018.0 |
| 20260830173015 | 96 | 227 | 7.0 | 9.0 | 0.00 | 0.00 | 0.00 | 42 | 1017.9 |
| 20260830172513 | 96 | 250 | 8.0 | 9.0 | 0.00 | 0.00 | 0.00 | 42 | 1018.0 |
| 20260830172008 | 95 | 196 | 9.0 | 13.0 | 0.00 | 0.00 | 0.00 | 42 | 1018.4 |
| 20260830171503 | 95 | 220 | 6.0 | 7.0 | 0.00 | 0.00 | 0.00 | 43 | 1018.0 |
| 20260830170958 | 95 | 201 | 7.0 | 8.0 | 0.00 | 0.00 | 0.00 | 43 | 1018.1 |
| 20260830170457 | 95 | 251 | 11.0 | 13.0 | 0.00 | 0.00 | 0.00 | 43 | 1018.3 |
| 20260830165956 | 95 | 216 | 9.0 | 11.0 | 0.00 | 0.00 | 0.00 | 44 | 1018.4 |
| 20260830165452 | 95 | 208 | 5.0 | 7.0 | 0.00 | 0.00 | 0.00 | 44 | 1018.4 |
| 20260830164948 | 95 | 233 | 4.0 | 5.0 | 0.00 | 0.00 | 0.00 | 43 | 1018.4 |
| 20260830164443 | 94 | 162 | 7.0 | 8.0 | 0.00 | 0.00 | 0.00 | 44 | 1018.4 |
| 20260830163940 | 94 | 232 | 9.0 | 10.0 | 0.00 | 0.00 | 0.00 | 44 | 1018.5 |
| 20260830163436 | 93 | 250 | 11.0 | 13.0 | 0.00 | 0.00 | 0.00 | 45 | 1018.4 |
| 20260830162935 | 94 | 247 | 11.0 | 11.0 | 0.00 | 0.00 | 0.00 | 46 | 1018.4 |
| 20260830162432 | 94 | 197 | 9.0 | 9.0 | 0.00 | 0.00 | 0.00 | 46 | 1018.6 |
| 20260830161931 | 93 | 210 | 4.0 | 5.0 | 0.00 | 0.00 | 0.00 | 47 | 1018.7 |
| 20260830161431 | 93 | 218 | 9.0 | 10.0 | 0.00 | 0.00 | 0.00 | 46 | 1018.6 |
| 20260830160926 | 93 | 232 | 11.0 | 11.0 | 0.00 | 0.00 | 0.00 | 47 | 1018.6 |
| 20260830160423 | 93 | 247 | 7.0 | 8.0 | 0.00 | 0.00 | 0.00 | 48 | 1018.6 |
| 20260830155917 | 92 | 258 | 8.0 | 11.0 | 0.00 | 0.00 | 0.00 | 49 | 1018.5 |
| 20260830155414 | 93 | 220 | 9.0 | 9.0 | 0.00 | 0.00 | 0.00 | 48 | 1018.4 |
| 20260830154909 | 92 | 270 | 8.0 | 10.0 | 0.00 | 0.00 | 0.00 | 50 | 1018.3 |
| 20260830154404 | 92 | 226 | 8.0 | 9.0 | 0.00 | 0.00 | 0.00 | 49 | 1018.4 |
| 20260830153901 | 91 | 226 | 10.0 | 11.0 | 0.00 | 0.00 | 0.00 | 50 | 1018.3 |
| 20260830153356 | 91 | 204 | 12.0 | 13.0 | 0.00 | 0.00 | 0.00 | 51 | 1018.4 |
| 20260830152855 | 91 | 218 | 9.0 | 10.0 | 0.00 | 0.00 | 0.00 | 52 | 1018.6 |
| 20260830152350 | 91 | 251 | 7.0 | 9.0 | 0.00 | 0.00 | 0.00 | 53 | 1018.5 |
| 20260830151844 | 90 | 220 | 7.0 | 7.0 | 0.00 | 0.00 | 0.00 | 54 | 1018.6 |
| 20260830151343 | 90 | 223 | 8.0 | 10.0 | 0.00 | 0.00 | 0.00 | 55 | 1018.5 |
| 20260830150839 | 90 | 208 | 8.0 | 9.0 | 0.00 | 0.00 | 0.00 | 55 | 1018.6 |
| 20260830150338 | 89 | 209 | 5.0 | 7.0 | 0.00 | 0.00 | 0.00 | 56 | 1018.6 |
| 20260830145833 | 89 | 233 | 8.0 | 11.0 | 0.00 | 0.00 | 0.00 | 57 | 1018.6 |
| 20260830145328 | 89 | 230 | 8.0 | 9.0 | 0.00 | 0.00 | 0.00 | 57 | 1018.7 |
| 20260830144823 | 88 | 209 | 6.0 | 7.0 | 0.00 | 0.00 | 0.00 | 58 | 1018.5 |
| 20260830144319 | 88 | 227 | 9.0 | 9.0 | 0.00 | 0.00 | 0.00 | 58 | 1018.7 |
| 20260830143815 | 87 | 227 | 9.0 | 10.0 | 0.00 | 0.00 | 0.00 | 58 | 1018.6 |
| 20260830143314 | 87 | 214 | 6.0 | 7.0 | 0.00 | 0.00 | 0.00 | 59 | 1018.7 |
| 20260830142808 | 87 | 258 | 7.0 | 8.0 | 0.00 | 0.00 | 0.00 | 59 | 1018.7 |
| 20260830142305 | 86 | 221 | 5.0 | 6.0 | 0.00 | 0.00 | 0.00 | 61 | 1018.7 |
| 20260830141759 | 86 | 201 | 6.0 | 7.0 | 0.00 | 0.00 | 0.00 | 62 | 1018.6 |
| 20260830141254 | 85 | 223 | 7.0 | 9.0 | 0.00 | 0.00 | 0.00 | 64 | 1018.7 |
| 20260830140749 | 84 | 188 | 6.0 | 7.0 | 0.00 | 0.00 | 0.00 | 65 | 1018.5 |
| 20260830140243 | 84 | 211 | 5.0 | 6.0 | 0.00 | 0.00 | 0.00 | 66 | 1019.0 |
| 20260830135738 | 83 | 195 | 5.0 | 6.0 | 0.00 | 0.00 | 0.00 | 66 | 1018.9 |
| 20260830135234 | 83 | 199 | 6.0 | 7.0 | 0.00 | 0.00 | 0.00 | 66 | 1018.8 |
| 20260830134729 | 83 | 201 | 6.0 | 7.0 | 0.00 | 0.00 | 0.00 | 67 | 1018.6 |
| 20260830134224 | 83 | 194 | 6.0 | 6.0 | 0.00 | 0.00 | 0.00 | 67 | 1018.7 |
| 20260830133720 | 82 | 205 | 6.0 | 8.0 | 0.00 | 0.00 | 0.00 | 68 | 1018.7 |
| 20260830133216 | 82 | 207 | 6.0 | 7.0 | 0.00 | 0.00 | 0.00 | 68 | 1018.8 |
| 20260830132711 | 81 | 200 | 7.0 | 9.0 | 0.00 | 0.00 | 0.00 | 68 | 1018.6 |
| 20260830132207 | 81 | 186 | 4.0 | 6.0 | 0.00 | 0.00 | 0.00 | 68 | 1018.8 |